Погода в Лесном Хлебичине

Украина / Ивано-Франковская область     48°41′16″N   24°55′23″E
темп.,
°C
ветер,
м/с
пор.,
м/с
влажн.,
%
обл.,
%
осадки,
мм/ч
давл.,
гПа
погр.,
м
27 ноября, сб
сб2723:00+4ююв2478100 0.0 99495
02:00+6ююв3675100 0.0 993111
05:00+8зюз51270100 0.0 993416
08:00+6юз3575100 0.0 99577
11:00+7сз1271100 0.0 99783
14:00+8ю136599 0.0 998405
17:00+6ююз477596 0.0 1000114
20:00+5ю348040 0.0 100155
28 ноября, вс
вс2823:00+4ююв338428 0.0 100240
02:00+4ююв3582100 0.0 100288
05:00+4юв2380100 0.0 100173
08:00+4юв1180100 0.0 100013
11:00+7юв1269100 0.0 1000102
14:00+9юв1165100 0.0 999122
17:00+7юв3472100 0.0 99871
20:00+6юв3579100 0.0 99775
29 ноября, пн
пн2923:00+6юв3783100 0.0 995131
02:00+6юв3581100 0.0 992101
05:00+6ююв237999 0.0 99050
08:00+6зюз3380100 0.0 99039
11:00+3сз71181100 0.2 995502
14:00+3сз6972100 0.2 996653
17:00+2сз6137275 0.0 998628
20:00+2сз6126571 0.0 1000812
30 ноября, вт
вт3023:000сз613756 0.0 1001524
02:000сз612726 0.0 1004475
05:00−1зсз4116943 0.0 1004345
08:000зсз61364100 0.0 1006600
11:00+1зсз7115999 0.0 10071276
14:00+2сз6106251 0.0 10071300
17:000сз511665 0.0 1007412
20:00−3зюз11825 0.0 100710
1 декабря, ср
ср123:00−2ю476598 0.0 1006105
02:00+1зюз4953100 0.0 1004357
05:00+3з81548100 0.1 1003787
08:00+3з61350100 0.1 1004666
11:00+4зсз7136086 0.0 10061347
14:00+6зсз7124992 0.0 10061714
17:00+2юз116497 0.0 100711
20:00+1ю3667100 0.0 1006110